| time (UTC) | temp C | wind direction | speed KPH | gust KPH | rain 1hr cm | rain 24hr cm | rain mn cm | humidity % | barometer mb |
| 20260510202022 | 10 | 286 | 8.0 | 9.7 | 0.00 | 0.00 | 0.00 | 42 | 1021.3 |
| 20260510201021 | 10 | 284 | 8.0 | 11.3 | 0.00 | 0.00 | 0.00 | 43 | 1021.3 |
| 20260510200021 | 10 | 321 | 9.7 | 14.5 | 0.00 | 0.00 | 0.00 | 42 | 1021.3 |
| 20260510195020 | 10 | 282 | 8.0 | 11.3 | 0.00 | 0.00 | 0.00 | 42 | 1021.6 |
| 20260510194018 | 10 | 293 | 8.0 | 17.7 | 0.00 | 0.00 | 0.00 | 43 | 1021.5 |
| 20260510193014 | 10 | 294 | 3.2 | 3.2 | 0.00 | 0.00 | 0.00 | 45 | 1021.4 |
| 20260510192011 | 10 | 311 | 8.0 | 11.3 | 0.00 | 0.00 | 0.00 | 44 | 1021.3 |
| 20260510191010 | 10 | 320 | 14.5 | 22.5 | 0.00 | 0.00 | 0.00 | 44 | 1021.7 |
| 20260510190010 | 10 | 297 | 8.0 | 9.7 | 0.00 | 0.00 | 0.00 | 44 | 1021.0 |
| 20260510185010 | 10 | 269 | 6.4 | 11.3 | 0.00 | 0.00 | 0.00 | 47 | 1021.0 |
| 20260510184008 | 10 | 270 | 6.4 | 9.7 | 0.00 | 0.00 | 0.00 | 43 | 1020.8 |
| 20260510183005 | 10 | 289 | 6.4 | 11.3 | 0.00 | 0.00 | 0.00 | 45 | 1020.8 |
| 20260510182002 | 10 | 295 | 8.0 | 16.1 | 0.00 | 0.00 | 0.00 | 46 | 1020.9 |
| 20260510181002 | 10 | 328 | 8.0 | 11.3 | 0.00 | 0.00 | 0.00 | 44 | 1020.9 |
| 20260510180003 | 10 | 338 | 9.7 | 11.3 | 0.00 | 0.00 | 0.00 | 47 | 1020.7 |
| 20260510175000 | 10 | 329 | 6.4 | 11.3 | 0.00 | 0.00 | 0.00 | 47 | 1020.7 |
| 20260510174001 | 10 | 117 | 9.7 | 11.3 | 0.00 | 0.00 | 0.00 | 42 | 1020.7 |
| 20260510172959 | 10 | 324 | 11.3 | 17.7 | 0.00 | 0.00 | 0.00 | 48 | 1020.7 |
| 20260510171957 | 10 | 336 | 9.7 | 14.5 | 0.00 | 0.00 | 0.00 | 46 | 1020.8 |
| 20260510170957 | 10 | 307 | 4.8 | 8.0 | 0.00 | 0.00 | 0.00 | 48 | 1020.5 |
| 20260510165954 | 9 | 325 | 4.8 | 8.0 | 0.00 | 0.00 | 0.00 | 48 | 1020.7 |
| 20260510164953 | 10 | 211 | 8.0 | 9.7 | 0.00 | 0.00 | 0.00 | 48 | 1020.4 |
| 20260510163952 | 10 | 263 | 6.4 | 9.7 | 0.00 | 0.00 | 0.00 | 47 | 1020.1 |
| 20260510162949 | 9 | 243 | 8.0 | 9.7 | 0.00 | 0.00 | 0.00 | 49 | 1020.4 |
| 20260510161948 | -17 | 0.0 | 0.0 | 0.00 | 0.00 | 0.00 | 1020.4 | ||
| 20260510160947 | 9 | 306 | 14.5 | 24.1 | 0.00 | 0.00 | 0.00 | 46 | 1020.4 |
| 20260510155942 | 9 | 304 | 9.7 | 14.5 | 0.00 | 0.00 | 0.00 | 48 | 1020.2 |
| 20260510154942 | 9 | 320 | 9.7 | 12.9 | 0.00 | 0.00 | 0.00 | 48 | 1020.2 |
| 20260510153937 | 8 | 329 | 8.0 | 12.9 | 0.00 | 0.00 | 0.00 | 49 | 1020.1 |
| 20260510152937 | 8 | 140 | 8.0 | 9.7 | 0.00 | 0.00 | 0.00 | 52 | 1019.9 |
| 20260510151937 | 8 | 336 | 8.0 | 12.9 | 0.00 | 0.00 | 0.00 | 48 | 1019.9 |
| 20260510150935 | 8 | 239 | 1.6 | 1.6 | 0.00 | 0.00 | 0.00 | 49 | 1019.9 |
| 20260510145933 | 8 | 343 | 4.8 | 9.7 | 0.00 | 0.00 | 0.00 | 51 | 1019.8 |
| 20260510144933 | 8 | 356 | 8.0 | 11.3 | 0.00 | 0.00 | 0.00 | 50 | 1019.5 |
| 20260510143931 | 8 | 298 | 4.8 | 14.5 | 0.00 | 0.00 | 0.00 | 51 | 1019.6 |
| 20260510142930 | 8 | 356 | 6.4 | 11.3 | 0.00 | 0.00 | 0.00 | 53 | 1019.4 |
| 20260510141929 | 7 | 322 | 6.4 | 12.9 | 0.00 | 0.00 | 0.00 | 55 | 1019.3 |
| 20260510140923 | 7 | 343 | 8.0 | 9.7 | 0.00 | 0.00 | 0.00 | 56 | 1019.3 |
| 20260510135918 | 7 | 342 | 11.3 | 12.9 | 0.00 | 0.00 | 0.00 | 56 | 1018.9 |
| 20260510134918 | 6 | 310 | 9.7 | 12.9 | 0.00 | 0.00 | 0.00 | 57 | 1018.9 |
| 20260510133916 | 6 | 352 | 12.9 | 17.7 | 0.00 | 0.00 | 0.00 | 59 | 1019.0 |
| 20260510132914 | 6 | 333 | 8.0 | 12.9 | 0.00 | 0.00 | 0.00 | 63 | 1018.6 |
| 20260510131909 | 6 | 327 | 4.8 | 12.9 | 0.00 | 0.00 | 0.00 | 64 | 1018.8 |
| 20260510130908 | 6 | 288 | 11.3 | 20.9 | 0.00 | 0.00 | 0.00 | 65 | 1018.5 |
| 20260510125908 | 6 | 335 | 14.5 | 20.9 | 0.00 | 0.00 | 0.00 | 68 | 1018.4 |
| 20260510124908 | 6 | 270 | 6.4 | 12.9 | 0.00 | 0.00 | 0.00 | 68 | 1018.6 |
| 20260510123906 | 5 | 2 | 9.7 | 12.9 | 0.00 | 0.00 | 0.00 | 69 | 1018.3 |
| 20260510122904 | 5 | 336 | 8.0 | 11.3 | 0.00 | 0.00 | 0.00 | 71 | 1018.3 |
| 20260510121901 | 5 | 337 | 3.2 | 8.0 | 0.00 | 0.00 | 0.00 | 73 | 1018.1 |
| 20260510120902 | 5 | 275 | 4.8 | 8.0 | 0.00 | 0.00 | 0.00 | 74 | 1018.1 |
| 20260510115900 | 5 | 330 | 8.0 | 9.7 | 0.00 | 0.00 | 0.00 | 77 | 1018.2 |
| 20260510114859 | 4 | 328 | 4.8 | 8.0 | 0.00 | 0.00 | 0.00 | 79 | 1017.7 |
| 20260510113857 | 4 | 317 | 3.2 | 4.8 | 0.00 | 0.00 | 0.00 | 79 | 1017.7 |
| 20260510112855 | 3 | 315 | 1.6 | 3.2 | 0.00 | 0.00 | 0.00 | 79 | 1017.6 |
| 20260510111854 | 3 | 328 | 1.6 | 4.8 | 0.00 | 0.00 | 0.00 | 80 | 1017.5 |
| 20260510110852 | 3 | 258 | 4.8 | 4.8 | 0.00 | 0.00 | 0.00 | 80 | 1017.2 |
| 20260510105851 | 3 | 331 | 4.8 | 8.0 | 0.00 | 0.00 | 0.00 | 80 | 1017.1 |
| 20260510104847 | 3 | 317 | 1.6 | 4.8 | 0.00 | 0.00 | 0.00 | 80 | 1016.8 |
| 20260510103846 | 3 | 268 | 0.0 | 0.0 | 0.00 | 0.00 | 0.00 | 80 | 1016.6 |
| 20260510102844 | 3 | 291 | 3.2 | 3.2 | 0.00 | 0.00 | 0.00 | 79 | 1016.5 |
| 20260510101844 | 3 | 225 | 1.6 | 3.2 | 0.00 | 0.00 | 0.00 | 78 | 1016.3 |
| 20260510100844 | 3 | 204 | 1.6 | 3.2 | 0.00 | 0.00 | 0.00 | 78 | 1015.9 |
| 20260510095843 | 3 | 201 | 0.0 | 1.6 | 0.00 | 0.00 | 0.00 | 77 | 1015.9 |
| 20260510094838 | 3 | 202 | 3.2 | 4.8 | 0.00 | 0.00 | 0.00 | 77 | 1015.6 |
| 20260510093836 | 3 | 202 | 1.6 | 3.2 | 0.00 | 0.00 | 0.00 | 76 | 1015.6 |
| 20260510092834 | 3 | 201 | 3.2 | 3.2 | 0.00 | 0.00 | 0.00 | 76 | 1015.2 |
| 20260510091832 | 3 | 201 | 0.0 | 0.0 | 0.00 | 0.00 | 0.00 | 76 | 1015.1 |
| 20260510090831 | 3 | 203 | 0.0 | 0.0 | 0.00 | 0.00 | 0.00 | 75 | 1014.7 |
| 20260510085830 | 3 | 204 | 0.0 | 0.0 | 0.00 | 0.00 | 0.00 | 75 | 1014.6 |
| 20260510084826 | 3 | 205 | 0.0 | 0.0 | 0.00 | 0.00 | 0.00 | 75 | 1014.4 |
| 20260510083826 | 4 | 206 | 0.0 | 0.0 | 0.00 | 0.00 | 0.00 | 75 | 1014.4 |
| 20260510082824 | 4 | 214 | 0.0 | 0.0 | 0.00 | 0.00 | 0.00 | 76 | 1014.1 |
| 20260510081820 | 4 | 218 | 1.6 | 1.6 | 0.00 | 0.00 | 0.00 | 76 | 1014.3 |
| 20260510080818 | 4 | 220 | 0.0 | 1.6 | 0.00 | 0.00 | 0.00 | 76 | 1014.0 |
| 20260510075816 | 4 | 223 | 1.6 | 4.8 | 0.00 | 0.00 | 0.00 | 76 | 1014.2 |
| 20260510074816 | 4 | 224 | 0.0 | 0.0 | 0.00 | 0.00 | 0.00 | 76 | 1013.9 |
| 20260510073815 | 5 | 233 | 1.6 | 1.6 | 0.00 | 0.00 | 0.00 | 76 | 1013.7 |
| 20260510072813 | 5 | 255 | 3.2 | 3.2 | 0.00 | 0.00 | 0.00 | 77 | 1013.7 |
| 20260510071812 | 5 | 271 | 0.0 | 1.6 | 0.00 | 0.00 | 0.00 | 77 | 1013.8 |
| 20260510070808 | 5 | 286 | 0.0 | 1.6 | 0.00 | 0.00 | 0.00 | 76 | 1013.7 |
| 20260510065804 | 5 | 341 | 3.2 | 8.0 | 0.00 | 0.00 | 0.00 | 76 | 1013.6 |
| 20260510064804 | 5 | 319 | 1.6 | 3.2 | 0.00 | 0.00 | 0.00 | 76 | 1013.5 |
| 20260510063802 | 5 | 316 | 1.6 | 3.2 | 0.00 | 0.00 | 0.00 | 76 | 1013.6 |
| 20260510062802 | -17 | 0.0 | 0.0 | 0.00 | 0.00 | 0.00 | 1013.5 | ||
| 20260510061759 | 6 | 326 | 4.8 | 8.0 | 0.00 | 0.00 | 0.00 | 74 | 1013.5 |
| 20260510060757 | 6 | 326 | 6.4 | 9.7 | 0.00 | 0.00 | 0.00 | 73 | 1013.5 |
| 20260510055757 | 7 | 312 | 3.2 | 3.2 | 0.00 | 0.00 | 0.00 | 72 | 1013.3 |
| 20260510054755 | 7 | 305 | 0.0 | 0.0 | 0.00 | 0.00 | 0.00 | 72 | 1012.9 |
| 20260510053751 | 7 | 326 | 0.0 | 0.0 | 0.00 | 0.00 | 0.00 | 71 | 1012.9 |
| 20260510052750 | 7 | 322 | 0.0 | 0.0 | 0.00 | 0.00 | 0.00 | 72 | 1012.5 |
| 20260510051748 | 7 | 317 | 0.0 | 0.0 | 0.00 | 0.00 | 0.00 | 73 | 1012.6 |
| 20260510050747 | 7 | 309 | 0.0 | 0.0 | 0.00 | 0.00 | 0.00 | 72 | 1012.5 |
| 20260510045747 | 7 | 321 | 0.0 | 0.0 | 0.00 | 0.00 | 0.00 | 70 | 1012.5 |
| 20260510044747 | 7 | 264 | 0.0 | 0.0 | 0.00 | 0.00 | 0.00 | 70 | 1012.4 |
| 20260510043745 | 8 | 238 | 0.0 | 0.0 | 0.00 | 0.00 | 0.00 | 69 | 1012.3 |
| 20260510042746 | 8 | 343 | 0.0 | 0.0 | 0.00 | 0.00 | 0.00 | 68 | 1012.1 |
| 20260510041744 | 8 | 328 | 4.8 | 8.0 | 0.00 | 0.00 | 0.00 | 67 | 1011.9 |
| 20260510040745 | 8 | 350 | 1.6 | 4.8 | 0.00 | 0.00 | 0.00 | 67 | 1011.9 |
| 20260510035742 | 8 | 351 | 6.4 | 11.3 | 0.00 | 0.53 | 0.53 | 67 | 1012.2 |
| 20260510034740 | 8 | 6 | 1.6 | 4.8 | 0.00 | 0.53 | 0.53 | 66 | 1011.8 |
| 20260510033740 | 8 | 335 | 9.7 | 11.3 | 0.00 | 0.53 | 0.53 | 66 | 1012.1 |
| 20260510032740 | 9 | 290 | 0.0 | 0.0 | 0.00 | 0.53 | 0.53 | 68 | 1011.2 |
| 20260510031737 | -17 | 0.0 | 0.0 | 0.00 | 0.00 | 0.00 | 1011.2 | ||
| 20260510030733 | -17 | 0.0 | 0.0 | 0.00 | 0.00 | 0.00 | 1010.9 | ||
| 20260510025728 | -17 | 0.0 | 0.0 | 0.00 | 0.00 | 0.00 | 1010.9 | ||
| 20260510024728 | -17 | 0.0 | 0.0 | 0.00 | 0.00 | 0.00 | 1010.7 | ||
| 20260510023725 | -17 | 0.0 | 0.0 | 0.00 | 0.00 | 0.00 | 1010.6 | ||
| 20260510022725 | -17 | 0.0 | 0.0 | 0.00 | 0.00 | 0.00 | 1010.2 | ||
| 20260510021720 | -17 | 0.0 | 0.0 | 0.00 | 0.00 | 0.00 | 1010.2 | ||
| 20260510020719 | 11 | 290 | 3.2 | 4.8 | 0.00 | 0.53 | 0.53 | 86 | 1009.6 |
| 20260510015715 | 11 | 315 | 1.6 | 3.2 | 0.00 | 0.53 | 0.53 | 86 | 1009.6 |
| 20260510014713 | -17 | 0.0 | 0.0 | 0.00 | 0.00 | 0.00 | 1009.1 | ||
| 20260510013711 | 11 | 130 | 3.2 | 4.8 | 0.00 | 0.53 | 0.53 | 92 | 1009.1 |
| 20260510012707 | -17 | 0.0 | 0.0 | 0.00 | 0.00 | 0.00 | 1008.8 | ||
| 20260510011703 | 11 | 219 | 0.0 | 0.0 | 0.00 | 0.53 | 0.53 | 92 | 1008.8 |
| 20260510010701 | -17 | 0.0 | 0.0 | 0.00 | 0.00 | 0.00 | 1008.4 | ||
| 20260510005700 | 12 | 232 | 0.0 | 0.0 | 0.00 | 0.53 | 0.53 | 91 | 1008.2 |
| 20260510004655 | 12 | 211 | 0.0 | 0.0 | 0.00 | 0.53 | 0.53 | 90 | 1008.1 |
| 20260510003655 | 12 | 193 | 0.0 | 0.0 | 0.00 | 0.53 | 0.53 | 90 | 1007.9 |
| 20260510002651 | 12 | 202 | 0.0 | 0.0 | 0.00 | 0.53 | 0.53 | 90 | 1007.6 |
| 20260510001651 | 12 | 191 | 0.0 | 0.0 | 0.00 | 0.53 | 0.53 | 90 | 1007.5 |
| 20260510000650 | 12 | 189 | 0.0 | 0.0 | 0.00 | 0.53 | 0.53 | 90 | 1007.4 |
| 20260509235650 | 12 | 203 | 0.0 | 0.0 | 0.00 | 0.53 | 0.53 | 90 | 1007.2 |
| 20260509234648 | 12 | 190 | 1.6 | 1.6 | 0.00 | 0.53 | 0.53 | 89 | 1007.1 |
| 20260509233644 | 12 | 190 | 4.8 | 8.0 | 0.00 | 0.53 | 0.53 | 88 | 1006.8 |
| 20260509232642 | 12 | 184 | 8.0 | 14.5 | 0.00 | 0.53 | 0.53 | 89 | 1007.0 |
| 20260509231642 | 12 | 193 | 4.8 | 4.8 | 0.00 | 0.53 | 0.53 | 88 | 1006.6 |
| 20260509230642 | 12 | 221 | 3.2 | 3.2 | 0.00 | 0.53 | 0.53 | 86 | 1006.5 |
| 20260509225641 | 12 | 187 | 4.8 | 4.8 | 0.00 | 0.53 | 0.53 | 85 | 1006.2 |
| 20260509224638 | 12 | 176 | 4.8 | 8.0 | 0.00 | 0.53 | 0.53 | 85 | 1006.0 |
| 20260509223632 | 12 | 202 | 4.8 | 8.0 | 0.00 | 0.53 | 0.53 | 85 | 1006.0 |
| 20260509222632 | 12 | 172 | 4.8 | 4.8 | 0.00 | 0.53 | 0.53 | 85 | 1005.7 |
| 20260509221630 | 12 | 186 | 6.4 | 9.7 | 0.00 | 0.53 | 0.53 | 85 | 1005.7 |
| 20260509220627 | 11 | 185 | 6.4 | 8.0 | 0.00 | 0.53 | 0.53 | 87 | 1006.1 |
| 20260509215626 | 11 | 197 | 4.8 | 4.8 | 0.00 | 0.53 | 0.53 | 89 | 1006.1 |
| 20260509214626 | 10 | 185 | 6.4 | 9.7 | 0.00 | 0.53 | 0.53 | 90 | 1006.2 |
| 20260509213625 | 10 | 202 | 4.8 | 8.0 | 0.00 | 0.53 | 0.53 | 89 | 1006.2 |
| 20260509212625 | 10 | 216 | 4.8 | 11.3 | 0.00 | 0.53 | 0.53 | 91 | 1006.4 |
| 20260509211623 | 9 | 200 | 8.0 | 9.7 | 0.00 | 0.53 | 0.53 | 92 | 1006.5 |
| 20260509210622 | 9 | 200 | 12.9 | 22.5 | 0.13 | 0.53 | 0.53 | 92 | 1007.3 |
| 20260509205619 | 10 | 191 | 6.4 | 9.7 | 0.89 | 0.53 | 0.53 | 94 | 1006.5 |
| 20260509204617 | 12 | 192 | 16.1 | 24.1 | 0.79 | 0.38 | 0.38 | 92 | 1007.3 |
| 20260509203615 | 13 | 211 | 11.3 | 16.1 | 0.00 | 0.25 | 0.25 | 86 | 1005.9 |
| 20260509202614 | 13 | 193 | 11.3 | 14.5 | 0.00 | 0.25 | 0.25 | 85 | 1005.6 |